Showing default

COSMOS 2385, 27056

Orbit data source: Space-Track

COSMOS 2385, 27056 is a payload satellite owned by KVR (CIS) in LEO that was launched on Fri, 28 Dec 2001 UTC via a TSIKLON-3 launch vehicle from the Plesetsk Missile And Space Complex (PKMTR). Payload-class satellites include a variety of spacecraft equipped with specific instruments for various scientific and technological missions. These include communications satellites like Starlink; space stations such as the ISS; scientific satellites like the Hubble; Earth observation satellites from companies like Planet Labs, Umbra, and HawkEye 360; GPS; miniature CubeSats for education and research; and military/defense satellites.

Loading next visibility...
Identifier
27056, 2001-058B
Orbit
LEO
Country
Flag of CISCIS
Related business
Manufacturer
NPO PM
Mission
Operational Defense Communications
Bus & Motor
STRELA-3, Unknown motor
Mass
225 kg wet, 225 kg dry
Launch date (UTC)
2001-12-28 (24 years ago)
Launch vehicle
TSIKLON-3
Launch site
Plesetsk Missile And Space Complex (PKMTR)
Object type
Payload
Rocket body
Debris
Shape & HBR
Cyl + 1 Arm, 3.5 m
Radar Cross Section
1.257 m², Medium (>0.1 m² and < 1m²)

Expand to show TLE details & history
Last TLE update: 2 hours ago

TLE from 2 hours ago
0 COSMOS 2385
1 27056U 01058B   26038.23073144  .00000076  00000-0  37770-3 0  9997
2 27056  82.5395 302.9759 0006139 158.4799  10.2797 12.60562553109406
Epoch: 2026-02-07T05:32Z
TLE epoch observation values (Epoch: 2026-02-07T05:32:15.196Z)
Latitude
11.08661°
Longitude
-98.90775°
Altitude
1,417.889 km
Speed
7.155 km/s
True Right ascension
08h 06m 03s
True Declination
11° 01' 39"
Sunlit
Object was in full shadow at epoch
Visualization orbit readout
Latitude
Unknown
Longitude
Unknown
Altitude
Unknown
Speed
Unknown
Apparent Right ascension
Unknown
Apparent Declination
Unknown
Sunlit
N/A
Visualization observer readout
Local Sidereal Time
10:05:26
Azimuth
Unknown
Elevation
Unknown
Doppler factor
Unknown
Orbital elements
Apogee altitude
1,422.734 km
Perigee altitude
1,413.162 km
Semi-major axis
7,796.085 km
Eccentricity
0.00061
Inclination
82.5395°
RAAN
302.9759°
Arg. of periapsis
158.4799°
True anomaly
10.29226°
Mean anomaly
10.2797°
Eccentric anomaly
10.28598°
Mean motion
3.15303 °/min
Orbital period
114.18 mins
BSTAR
0.0003777
Loading maneuver chart data...
Computing Atmospheric mass density...
Loading historical data...
Loading historical data...
Loading historical data...
Loading historical data...
Loading historical data...
Loading historical data...
Loading historical data...

Documentation

Showing up to 5 results
|